Pleasanton, CA

7:15 AM PST on February 19, 2017 (GMT -0800)
Livermore Municipal

Weather History for KLVK - July, 2013

Change the Weather History Date:

Wednesday, July 24, 2013

  Actual Average Record
Temperature  
Mean Temperature 78 °F 73 °F  
Max Temperature 95 °F 88 °F 110 °F (2006)
Min Temperature 61 °F 57 °F 47 °F (1977)
Degree Days  
Heating Degree Days 0 0  
Month to date heating degree days 0 0  
Since 1 June heating degree days 5 32  
Since 1 July heating degree days 0 0  
Cooling Degree Days 13 8  
Month to date cooling degree days 232 178  
Year to date cooling degree days 523 341  
Since 1 June cooling degree days 422 288  
Growing Degree Days 28 (Base 50)    
Moisture  
Dew Point 49 °F    
Average Humidity 43    
Maximum Humidity 72    
Minimum Humidity 13    
Precipitation  
Precipitation 0.00 in 0.00 in 0.16 in (1946)
Month to date precipitation 0.00 0.00  
Year to date precipitation 2.12 9.90  
Since 1 July precipitation 0.00  
Sea Level Pressure  
Sea Level Pressure 29.92 in    
Wind  
Wind Speed 8 mph (WNW)    
Max Wind Speed 16 mph    
Max Gust Speed 20 mph    
Visibility 10 miles    
Events      
T = Trace of Precipitation, MM = Missing Value Source: NWS Daily Summary

Daily Weather History Graph

Daily Weather History Graph

Search for Another Location

Airport or City:

Trip Planner

Search our weather history database for the weather conditions in past years. The results will help you decide how hot, cold, wet, or windy it might be!

Date:

Astronomy

Jul. 24, 2013 Rise Set
Actual Time 6:04 AM PDT 8:22 PM PDT
Civil Twilight 5:34 AM PDT 8:52 PM PDT
Nautical Twilight 4:58 AM PDT 9:28 PM PDT
Astronomical Twilight 4:18 AM PDT 10:08 PM PDT
Moon 9:36 PM PDT (7/24) 8:27 AM PDT (7/24)
Length of Visible Light 15h 17m
Length of Day
14h 17m
Waning Gibbous, 94% of the Moon is Illuminated
Jul 24
Waning Gibbous
Jul 29
Last Quarter
Aug 6
New
Aug 14
First Quarter
Aug 20
Full

Hourly Weather History & Observations

Time (PDT) Temp. Dew Point Humidity Pressure Visibility Wind Dir Wind Speed Gust Speed Precip Events Conditions
12:53 AM 66.0 °F 52.0 °F 60% 29.96 in 10.0 mi WNW 8.1 mph - N/A   Clear
1:53 AM 64.9 °F 54.0 °F 68% 29.94 in 10.0 mi WNW 6.9 mph - N/A   Clear
2:53 AM 64.0 °F 53.1 °F 67% 29.94 in 10.0 mi WNW 3.5 mph - N/A   Clear
3:53 AM 62.1 °F 54.0 °F 75% 29.94 in 10.0 mi West 6.9 mph - N/A   Clear
4:53 AM 63.0 °F 54.0 °F 72% 29.94 in 10.0 mi NW 5.8 mph - N/A   Clear
5:53 AM 62.1 °F 54.0 °F 75% 29.96 in 10.0 mi West 3.5 mph - N/A   Clear
6:53 AM 63.0 °F 55.9 °F 78% 29.96 in 10.0 mi SW 3.5 mph - N/A   Clear
7:53 AM 66.9 °F 55.0 °F 66% 29.96 in 10.0 mi Variable 4.6 mph - N/A   Clear
8:53 AM 70.0 °F 55.9 °F 61% 29.97 in 10.0 mi SW 4.6 mph - N/A   Clear
9:53 AM 75.9 °F 52.0 °F 43% 29.96 in 10.0 mi West 5.8 mph - N/A   Clear
10:53 AM 81.0 °F 51.1 °F 35% 29.96 in 10.0 mi WSW 6.9 mph - N/A   Clear
11:53 AM 86.0 °F 43.0 °F 22% 29.94 in 10.0 mi West 10.4 mph - N/A   Clear
12:53 PM 91.0 °F 42.1 °F 18% 29.93 in 10.0 mi West 9.2 mph - N/A   Clear
1:53 PM 91.9 °F 44.1 °F 19% 29.91 in 10.0 mi WNW 11.5 mph - N/A   Clear
2:53 PM 93.9 °F 42.1 °F 17% 29.90 in 10.0 mi WNW 12.7 mph - N/A   Clear
3:53 PM 95.0 °F 37.0 °F 13% 29.88 in 10.0 mi West 13.8 mph - N/A   Clear
4:53 PM 93.0 °F 37.9 °F 15% 29.87 in 10.0 mi WNW 13.8 mph - N/A   Clear
5:53 PM 91.0 °F 37.0 °F 15% 29.87 in 10.0 mi WNW 13.8 mph - N/A   Clear
6:53 PM 87.1 °F 45.0 °F 23% 29.87 in 10.0 mi West 13.8 mph - N/A   Clear
7:53 PM 82.0 °F 45.0 °F 27% 29.88 in 10.0 mi West 9.2 mph - N/A   Clear
8:53 PM 75.9 °F 48.9 °F 38% 29.90 in 10.0 mi NW 6.9 mph - N/A   Clear
9:53 PM 73.0 °F 51.1 °F 46% 29.91 in 10.0 mi WNW 6.9 mph - N/A   Clear
10:53 PM 70.0 °F 52.0 °F 53% 29.91 in 10.0 mi NW 4.6 mph - N/A   Clear
11:53 PM 68.0 °F 51.1 °F 55% 29.92 in 10.0 mi NW 5.8 mph - N/A   Clear